Lapse_Rate
5.6 5.5 5.5 5.6 5.6 5.6 5.7 5.6 5.4 5.2 5.0 5.0 5.0 5.1 5.0 5.2 5.6 5.7 5.9 6.0 6.2 6.3 6.5 6.6 6.6 6.5 6.5 6.5 6.3 6.4 6.5 6.4 6.0 6.3 6.7 6.6 6.4 6.0 5.9 5.7 5.6 6.0 6.2 6.4 6.0 6.2 6.6 4.8 4.6 4.9 4.8 4.9 4.8 5.3
5.5 5.4 5.4 5.4 5.4 5.5 5.5 5.4 5.3 5.2 4.9 4.8 4.8 4.9 5.0 5.1 5.4 5.6 5.7 5.9 6.0 6.0 6.2 6.3 6.4 6.4 6.3 6.4 6.4 6.4 6.2 6.4 5.8 6.1 6.0 5.8 5.8 5.6 6.0 6.1 5.5 5.6 5.6 5.9 5.7 5.9 4.8 5.0 4.8 4.7 4.9 5.0 5.0 5.1
5.5 5.3 5.3 5.4 5.4 5.4 5.4 5.4 5.1 5.1 5.0 4.9 4.9 4.9 5.0 5.1 5.2 5.5 5.8 6.0 6.0 6.0 6.0 6.0 6.0 6.0 6.0 6.1 6.1 5.9 5.9 6.1 6.0 6.2 5.6 5.6 5.6 5.6 6.0 5.9 5.3 4.8 5.2 5.3 5.1 4.9 4.7 4.5 4.4 4.3 4.9 5.0 5.2 5.3
5.4 5.3 5.3 5.4 5.3 5.3 5.3 5.2 5.1 5.0 5.0 4.9 4.9 5.0 5.1 5.2 5.3 5.4 5.7 5.8 5.9 5.8 5.6 5.4 5.7 5.7 5.8 5.9 5.9 5.9 6.0 6.0 6.1 6.0 5.4 5.6 5.7 5.7 5.5 5.4 5.5 5.0 4.9 4.8 4.9 4.9 4.8 4.5 4.3 4.5 5.2 5.2 5.2 5.4
5.4 5.4 5.4 5.4 5.3 5.3 5.3 5.3 5.1 5.1 5.1 5.0 4.9 5.1 5.3 5.3 5.5 5.6 5.6 5.7 5.7 5.6 5.5 5.2 5.4 5.5 5.6 5.7 5.7 5.8 5.7 5.8 5.6 5.5 5.5 5.5 5.0 5.2 4.9 5.0 5.2 4.7 4.8 5.0 5.1 4.8 4.9 4.8 4.8 4.7 5.0 5.0 5.2 5.4
5.4 5.3 5.3 5.3 5.2 5.2 5.3 5.3 5.1 5.1 5.1 5.0 5.1 5.1 5.3 5.4 5.6 5.7 5.8 5.7 5.7 5.6 5.5 5.3 5.6 5.5 5.6 5.6 5.5 5.6 5.6 5.6 5.3 5.3 5.3 5.0 5.2 5.2 5.3 5.5 4.9 4.8 4.8 4.8 4.7 4.9 5.0 5.1 5.1 4.6 5.0 5.4 5.7 5.9
5.3 5.3 5.2 5.2 5.1 5.2 5.3 5.3 5.2 5.2 5.1 4.9 5.0 5.2 5.3 5.5 5.6 5.6 5.6 5.8 5.9 5.9 5.9 5.7 5.5 5.7 5.7 5.6 5.6 5.6 5.5 5.4 5.2 5.1 5.2 5.1 5.0 5.1 5.2 5.4 5.1 4.9 4.7 4.7 4.8 5.0 5.1 5.0 5.3 5.2 5.2 5.4 5.6 5.8
5.2 5.2 5.2 5.1 5.1 5.3 5.4 5.5 5.3 5.2 5.1 4.9 4.9 5.2 5.4 5.4 5.5 5.6 5.7 5.8 5.9 6.0 5.9 5.8 5.5 5.7 5.8 5.6 5.6 5.6 5.5 5.4 5.4 5.2 5.3 5.0 5.2 5.2 5.3 5.1 5.1 4.9 4.8 4.6 4.7 5.0 5.2 5.2 5.2 5.4 5.5 5.8 6.1 6.2
5.0 5.1 5.1 5.1 5.1 5.3 5.4 5.5 5.5 5.3 5.2 5.0 5.0 5.3 5.3 5.2 5.4 5.5 5.7 5.9 6.0 6.0 5.9 5.7 5.7 6.2 5.9 5.8 5.8 5.7 5.6 5.5 5.5 5.4 5.1 5.2 5.1 5.1 5.0 5.1 5.0 5.0 5.0 5.0 4.9 5.0 5.1 5.3 5.4 5.5 5.7 5.8 5.9 6.1
5.0 5.1 5.2 5.1 5.1 5.2 5.3 5.4 5.4 5.3 5.2 5.1 5.2 5.1 4.9 4.9 5.0 5.3 5.4 5.6 5.4 5.5 5.6 5.4 5.4 5.7 5.9 6.1 6.1 6.0 6.0 5.8 5.7 5.5 5.6 5.3 5.2 5.3 5.2 5.1 4.9 4.9 5.1 5.4 5.4 5.4 5.5 5.6 5.6 5.5 5.5 5.8 6.0 6.0
5.0 5.2 5.2 5.1 5.1 5.1 5.2 5.3 5.2 5.1 5.1 5.2 5.2 5.1 4.9 4.7 4.7 5.1 5.3 5.2 5.2 5.0 5.1 5.2 5.4 5.6 5.8 5.8 5.9 6.1 6.1 6.1 6.0 6.1 6.0 5.8 5.8 5.7 5.5 5.1 5.0 5.1 5.3 5.6 5.7 5.7 5.6 5.8 5.6 5.6 5.7 5.9 6.0 6.0
5.1 5.2 5.2 5.1 5.0 5.0 5.1 5.2 5.1 5.2 5.3 5.2 5.4 5.3 5.1 5.0 4.9 5.1 5.1 5.3 4.8 5.1 5.4 5.5 5.3 4.9 4.8 5.4 5.7 5.8 5.7 5.9 6.2 6.0 6.0 6.2 6.0 5.6 5.3 5.2 5.2 5.3 5.5 5.8 6.0 5.9 5.7 5.5 5.5 5.4 5.5 5.7 5.9 5.7
5.1 5.1 5.0 5.1 5.0 5.0 5.1 5.1 5.2 5.1 5.1 5.2 5.3 5.4 5.3 5.3 5.1 5.5 5.6 5.5 5.5 5.5 5.7 5.6 5.5 5.8 6.0 6.2 6.2 6.2 5.9 6.2 6.2 6.2 6.6 6.3 6.1 5.5 5.3 5.1 5.3 5.5 5.8 5.9 6.1 6.1 5.9 5.8 5.6 5.6 5.7 5.8 5.9 5.5
5.0 5.0 4.9 5.0 5.0 5.1 5.1 5.1 5.1 5.0 5.0 5.1 5.1 5.3 5.3 5.5 5.6 5.8 5.8 6.0 6.0 5.9 5.9 5.8 5.9 6.1 5.9 5.8 6.3 6.1 6.2 6.3 6.6 7.0 6.5 5.9 6.2 5.6 5.5 5.5 5.6 5.8 6.0 6.2 6.2 6.0 6.0 5.9 5.8 5.6 5.7 5.9 6.0 5.8
4.8 4.8 4.9 4.9 5.0 5.1 5.1 5.1 5.0 5.0 5.1 5.1 5.3 5.2 5.0 5.7 6.0 6.1 6.1 6.2 6.1 6.0 6.1 6.1 6.2 6.1 6.4 6.5 6.7 6.6 6.8 6.9 6.9 6.4 6.4 6.1 6.1 6.2 6.2 5.8 6.0 6.1 6.2 6.2 6.3 6.2 6.0 6.1 5.9 5.7 5.6 5.9 5.9 5.8
4.9 4.8 4.9 4.9 5.0 5.1 5.2 5.1 5.1 5.2 5.3 5.4 5.4 5.4 5.3 5.5 5.8 5.9 5.9 6.1 6.4 6.3 6.4 6.5 6.5 6.7 6.8 6.6 6.8 6.9 7.2 7.1 6.5 6.5 6.3 6.2 6.3 6.4 6.3 5.9 5.9 6.1 6.1 6.2 6.2 6.2 6.1 6.1 5.8 5.8 5.7 5.8 5.9 6.0
5.0 5.0 5.0 5.0 5.0 5.2 5.3 5.2 5.3 5.4 5.4 5.5 5.4 5.6 5.6 5.7 5.7 5.7 5.9 6.0 6.2 6.4 6.5 6.7 6.7 6.9 7.0 7.0 7.0 6.8 6.7 6.7 6.7 6.6 6.4 6.3 6.2 6.3 6.3 6.0 6.0 6.0 6.1 6.3 6.2 6.1 6.1 5.9 5.9 5.9 5.8 5.5 5.8 5.9
5.0 4.9 5.1 5.1 5.2 5.3 5.4 5.4 5.3 5.3 5.3 5.4 5.4 5.2 5.7 5.8 5.8 5.6 5.9 6.0 6.0 6.2 6.3 6.3 6.5 6.7 6.8 7.2 7.3 7.1 6.9 6.8 6.6 6.4 6.2 6.0 6.2 6.2 6.1 6.2 6.1 6.2 6.3 6.3 6.1 6.1 6.0 5.8 5.7 5.9 5.9 5.5 5.3 5.8
4.7 5.0 5.1 5.2 5.3 5.4 5.5 5.5 5.3 5.2 5.2 5.3 5.4 5.5 5.8 6.0 6.0 6.0 6.0 6.0 6.0 6.1 6.2 6.3 6.5 6.5 6.5 6.8 6.8 6.8 6.8 6.8 6.6 6.4 6.2 6.1 6.3 6.1 6.0 6.1 6.1 6.2 6.1 6.1 5.7 6.0 5.8 5.7 5.4 5.6 5.6 5.5 5.7 6.0
4.9 5.0 5.1 5.2 5.4 5.4 5.5 5.4 5.3 5.2 5.1 5.2 5.5 5.5 5.8 6.0 6.2 6.3 6.2 6.0 6.0 6.1 6.2 6.3 6.3 6.4 6.5 6.4 6.5 6.5 6.5 6.5 6.4 6.3 6.2 6.1 6.2 6.1 6.0 6.1 6.1 5.9 5.9 5.9 5.8 5.6 5.4 5.2 5.3 5.6 5.8 6.0 5.9 5.4
4.9 5.0 5.1 5.3 5.4 5.4 5.5 5.4 5.4 5.4 5.5 5.7 5.7 5.7 5.8 5.9 6.0 6.0 6.0 6.1 6.2 6.3 6.2 6.2 6.3 6.5 6.5 6.6 6.6 6.5 6.5 6.5 6.5 6.3 6.3 6.3 6.3 6.0 5.8 5.8 5.9 5.9 5.8 5.7 5.6 5.6 5.5 5.3 5.5 5.2 5.6 5.8 5.7 5.5
5.0 5.1 5.3 5.4 5.5 5.7 5.6 5.5 5.5 5.6 5.8 5.8 5.9 5.9 5.9 6.0 6.1 6.1 6.2 6.3 6.2 6.3 6.4 6.4 6.4 6.4 6.4 6.5 6.4 6.4 6.5 6.4 6.3 6.2 6.1 6.1 6.2 6.1 5.9 6.1 5.9 6.0 5.8 5.6 5.5 5.6 5.5 5.7 5.4 5.2 5.0 4.9 4.9 5.6
5.1 5.2 5.5 5.6 5.6 5.6 5.4 5.6 5.5 5.5 5.6 5.7 5.9 6.0 6.1 6.2 6.2 6.2 6.3 6.3 6.3 6.3 6.4 6.3 6.3 6.3 6.3 6.3 6.3 6.2 6.1 6.1 5.8 5.9 6.0 6.0 6.0 5.9 5.8 5.5 5.6 5.6 5.3 5.6 5.6 5.8 5.6 5.5 5.4 5.2 5.0 4.8 4.7 4.5
5.3 5.4 5.5 5.5 5.6 5.6 5.3 5.3 5.5 5.6 5.6 5.7 5.9 5.9 6.1 6.1 6.2 6.3 6.5 6.3 6.2 6.2 6.3 6.4 6.2 6.1 6.2 6.1 6.1 6.1 6.0 5.9 5.8 5.8 6.1 6.0 5.9 5.8 5.7 5.6 5.7 5.7 5.8 5.8 6.0 5.7 5.4 5.4 5.5 5.4 5.3 5.1 4.8 4.7
5.3 5.5 5.5 5.6 5.6 5.2 5.3 5.4 5.6 5.6 5.7 5.8 5.9 5.9 6.0 6.0 6.2 6.5 6.5 6.4 6.1 6.2 6.3 6.3 6.2 6.0 6.1 6.0 6.0 6.1 5.8 6.0 5.9 5.6 5.7 5.9 5.8 5.6 5.5 5.7 5.8 5.8 5.9 5.8 5.7 5.8 5.8 5.7 5.5 5.4 5.0 4.9 4.9 4.8
5.4 5.5 5.6 5.7 5.5 5.4 5.2 5.5 5.7 5.6 5.7 5.7 5.8 5.8 5.9 6.0 6.1 6.5 6.3 6.4 6.2 6.1 6.1 6.3 6.0 5.9 6.0 6.0 5.9 6.0 6.0 5.7 5.7 5.8 5.7 5.7 5.5 5.8 5.7 5.4 5.4 5.9 6.1 6.1 6.0 5.8 5.6 5.2 5.2 5.0 5.0 5.1 5.3 5.0
5.4 5.6 5.8 5.9 5.8 5.6 5.3 5.4 5.6 5.5 5.6 5.6 5.8 5.8 5.7 5.9 6.2 6.2 6.3 6.2 6.1 6.0 6.0 5.8 5.8 5.9 6.0 6.0 5.6 5.5 5.8 5.8 5.7 5.6 5.5 5.5 5.7 5.8 5.9 5.8 5.7 5.9 5.9 6.0 6.0 5.9 5.6 5.3 5.2 5.1 5.1 5.3 5.8 5.7
5.8 5.9 6.0 5.9 5.8 5.7 5.4 5.3 5.4 5.7 5.7 5.6 5.5 5.6 5.5 5.8 5.9 6.1 5.9 5.9 5.8 5.8 5.9 6.0 6.0 5.9 5.6 5.9 5.9 5.7 5.8 5.8 5.8 5.6 5.6 5.6 5.5 5.6 5.8 6.0 5.9 5.9 6.0 6.0 5.9 5.9 5.8 6.0 6.3 6.5 6.5 6.3 6.2 6.2
6.1 6.0 6.0 6.0 6.0 6.0 5.8 5.7 5.8 5.6 5.6 5.5 5.5 5.5 5.5 5.6 5.5 5.6 5.5 5.6 5.7 5.7 5.7 5.5 6.1 5.8 5.8 5.7 6.0 5.6 5.8 6.0 5.8 5.8 5.8 5.8 5.8 5.9 5.9 5.8 5.9 5.9 5.9 6.0 6.0 6.0 6.2 6.3 6.4 6.4 6.4 6.3 6.2 6.1
6.1 6.0 6.0 6.0 6.0 5.9 5.7 5.7 5.9 5.7 5.6 5.6 5.5 5.6 5.7 5.8 5.8 5.9 6.0 5.8 5.8 5.7 5.7 5.7 6.0 6.0 5.8 5.8 5.6 5.6 5.8 5.8 6.1 5.9 5.8 5.8 5.7 5.6 5.7 5.7 5.7 5.8 6.1 6.2 6.2 6.3 6.4 6.4 6.5 6.4 6.2 6.1 6.0 5.9
5.9 5.9 5.9 6.0 6.0 5.9 5.8 5.8 5.9 5.8 5.9 6.0 5.6 5.6 5.5 5.5 5.5 5.9 6.0 6.0 6.0 5.9 6.0 5.9 6.0 5.9 5.8 5.8 5.5 5.5 5.7 5.7 6.0 5.9 5.9 5.8 5.7 5.6 5.5 5.6 5.9 6.1 6.2 6.2 6.3 6.3 6.3 6.3 6.1 6.0 5.9 5.9 5.9 5.8
5.6 5.7 5.8 5.9 5.9 5.9 5.9 6.0 6.0 6.0 6.0 5.9 5.8 5.6 5.5 5.8 5.6 6.1 6.3 6.5 6.4 6.0 5.8 5.8 5.7 5.8 5.9 5.7 5.7 5.7 6.0 5.9 5.8 5.7 5.6 5.6 5.5 5.4 5.6 5.9 6.0 6.2 6.2 6.3 6.3 6.2 6.1 6.0 5.9 5.8 5.8 5.7 5.8 5.8
5.7 5.8 5.8 5.8 5.9 5.9 5.9 6.1 6.2 6.2 6.3 6.2 6.2 6.2 6.0 5.9 6.0 6.1 6.1 6.2 6.2 6.0 5.8 5.9 6.0 6.1 5.9 5.9 5.9 6.0 6.1 6.1 6.1 6.0 5.9 5.8 5.8 5.8 5.9 6.0 6.1 6.2 6.2 6.2 6.1 6.0 6.0 6.0 5.8 5.7 5.7 5.7 5.7 5.7
Wind_Speed
21 22 23 22 23 22 23 23 23 24 23 22 20 20 20 20 18 9 3 5 5 4 5 3 2 2 1 3 5 4 5 5 4 6 5 4 5 4 4 3 2 4 3 3 2 3 6 4 3 5 9 11 10 10
22 22 22 21 22 23 23 23 23 24 23 21 20 20 19 17 14 14 3 1 5 5 5 4 7 8 3 5 3 2 4 1 4 2 2 1 4 4 2 5 2 3 3 4 3 4 4 2 6 8 9 10 12 12
23 22 21 21 23 23 22 23 23 23 22 21 21 20 19 16 13 8 5 5 4 3 4 4 3 4 5 7 6 3 2 1 2 3 1 1 2 2 5 2 5 3 0 3 3 5 4 8 6 4 9 11 13 15
23 21 20 21 22 22 23 23 24 23 22 23 22 22 20 16 12 7 4 3 4 4 4 5 2 3 0 2 4 3 2 2 3 2 2 2 2 2 2 3 4 5 4 1 6 2 10 4 5 13 14 15 15 16
22 21 22 23 23 23 23 24 24 23 24 24 25 24 21 16 11 8 5 2 3 5 4 1 2 2 2 4 5 4 3 2 3 4 4 2 3 4 1 2 4 3 3 4 4 8 7 12 14 14 15 15 16 18
19 20 22 22 23 23 23 24 23 24 24 26 26 25 20 13 6 3 4 3 3 3 4 2 2 1 2 5 6 4 2 1 2 2 3 3 2 4 4 2 4 4 2 3 5 10 11 14 12 11 16 18 18 18
20 21 21 22 22 22 22 23 25 26 27 27 26 23 14 1 4 3 4 3 1 3 3 3 4 3 3 6 4 3 2 0 3 1 2 1 3 3 2 2 7 4 2 5 7 7 10 11 14 14 14 16 17 18
19 21 21 21 21 22 22 24 26 28 28 28 23 12 1 5 4 3 3 1 3 3 3 3 2 4 3 4 4 0 2 3 2 1 2 2 3 3 3 7 5 2 4 3 6 8 9 10 11 14 13 14 16 16
19 20 20 20 21 22 23 25 27 30 30 26 15 3 4 3 2 3 4 4 3 2 3 2 3 3 0 2 1 3 1 4 1 3 2 3 3 3 7 6 2 4 4 6 8 7 8 11 12 13 15 16 17 17
18 19 19 19 20 21 22 24 27 33 31 17 5 4 3 3 6 5 4 3 3 2 2 2 0 0 3 2 2 2 1 1 3 2 1 4 3 8 6 3 2 4 5 6 8 7 10 10 11 13 15 15 15 14
18 18 18 18 19 20 21 23 26 33 9 4 4 2 5 6 3 3 2 1 1 2 2 4 4 3 3 2 2 3 1 0 3 3 3 3 4 7 6 3 3 4 5 6 6 7 7 8 9 10 13 15 16 16
16 16 17 18 18 19 19 21 23 11 6 6 5 5 3 3 2 3 1 2 1 1 3 3 3 3 2 2 1 1 2 2 1 2 3 2 4 9 5 2 2 3 6 7 7 7 5 6 6 8 10 12 14 15
16 15 17 17 18 18 19 22 20 14 13 3 3 3 2 1 2 2 5 2 0 4 2 4 2 3 1 1 1 2 2 1 0 3 2 2 8 6 3 1 2 4 6 8 8 7 4 4 5 7 10 11 13 14
15 16 16 18 16 16 20 22 20 9 4 3 3 5 3 2 2 1 2 1 3 1 3 4 2 2 1 3 1 3 1 2 3 3 1 5 6 3 1 1 3 6 7 9 9 6 5 5 6 6 9 11 12 13
15 16 18 10 13 19 22 21 12 4 3 2 3 2 1 2 1 1 2 3 1 3 3 3 4 4 4 3 2 2 3 3 2 2 3 5 3 0 3 3 5 6 8 9 8 8 6 6 8 5 7 10 12 12
15 18 2 10 19 22 22 10 3 2 2 2 3 4 2 5 3 1 3 3 5 4 2 3 2 2 2 2 3 3 2 1 2 1 4 2 3 4 5 5 6 7 8 9 8 8 6 8 4 7 6 9 11 12
12 3 7 18 23 23 7 3 2 2 2 2 2 2 3 4 3 3 3 2 3 6 3 3 2 1 2 3 2 2 2 1 3 2 2 3 3 5 6 7 7 8 9 9 7 7 6 7 7 6 7 8 8 10
3 5 11 19 19 10 1 2 2 2 3 2 3 1 3 5 5 4 1 3 4 1 2 2 3 4 3 2 1 1 2 4 3 4 5 3 4 6 6 7 7 8 10 7 6 5 5 7 5 5 4 6 5 8
10 15 18 15 9 4 3 1 3 3 2 3 3 3 4 5 5 5 5 4 3 4 3 2 3 3 1 3 5 5 4 6 6 5 4 2 4 7 8 7 7 9 8 4 5 4 5 7 2 1 2 3 5 6
15 11 6 10 4 2 3 2 2 3 3 3 4 4 5 5 5 5 5 5 5 2 3 3 1 3 3 4 4 6 6 6 6 8 6 2 4 3 6 6 4 5 4 4 5 6 3 2 2 3 3 4 5 6
6 4 8 3 2 3 3 3 2 2 4 3 3 5 4 3 3 2 2 2 4 3 3 2 1 4 4 4 4 6 7 6 7 6 5 5 4 4 2 1 3 2 1 4 4 3 4 2 5 4 5 5 5 7
2 7 3 1 2 2 3 2 4 4 3 4 4 2 3 1 2 2 3 4 1 4 3 2 3 3 4 5 6 6 7 8 7 6 4 5 4 3 1 2 4 3 2 5 6 6 5 4 3 5 5 4 3 7
5 3 2 1 2 1 4 1 3 2 3 2 3 2 2 2 1 2 2 2 2 1 1 2 2 2 2 1 2 6 8 8 6 6 6 4 1 4 2 1 1 4 4 4 5 4 4 4 2 2 4 2 5 6
2 2 2 1 1 3 2 2 2 2 3 2 3 3 1 2 3 3 2 2 2 1 1 1 3 3 2 3 3 4 6 6 7 5 4 4 5 2 3 4 5 5 4 1 1 3 5 3 2 2 3 4 5 6
3 1 1 3 2 2 3 2 1 2 2 1 2 3 1 2 3 3 3 2 3 4 4 1 3 2 0 3 3 5 4 3 5 3 3 3 2 2 5 4 2 2 2 4 4 4 3 3 3 3 3 6 6 6
2 2 3 1 2 3 1 2 0 1 2 2 2 2 2 3 4 3 2 2 3 4 5 3 1 2 3 7 9 8 7 4 3 2 4 4 3 3 3 4 7 7 7 6 6 3 3 3 5 3 5 4 2 7
2 2 3 2 3 2 4 3 4 3 3 2 1 2 2 3 3 3 4 3 4 4 4 3 1 5 5 6 7 7 7 8 6 4 6 6 5 5 4 5 8 7 6 7 5 5 4 3 4 4 5 5 6 7
3 2 4 2 4 4 4 3 2 3 3 3 2 3 2 3 4 1 2 4 3 4 4 3 4 2 2 2 3 3 4 4 5 5 7 7 3 4 3 3 6 3 5 8 7 6 7 7 5 5 6 6 6 6
3 2 3 5 5 4 4 4 3 2 1 3 3 3 4 3 3 2 1 2 4 5 6 4 2 3 6 3 5 6 5 2 4 6 8 5 5 3 2 3 5 5 6 7 11 10 10 8 7 6 6 5 4 5
3 4 3 3 3 3 3 3 4 6 6 3 1 2 7 11 10 9 9 8 7 8 7 1 1 4 6 4 4 4 2 1 4 1 5 4 4 4 5 5 5 5 4 4 5 6 5 3 4 3 5 6 6 6
1 4 3 4 3 4 5 4 5 1 3 2 3 4 4 4 4 4 3 4 6 6 6 4 6 4 4 4 2 4 4 3 2 1 3 2 3 4 5 5 4 4 4 5 5 6 5 4 4 4 6 6 6 6
4 6 3 3 3 3 3 3 2 2 1 2 2 2 3 3 2 1 2 3 4 6 5 4 3 2 2 1 3 4 2 2 2 2 1 3 4 4 4 3 3 4 4 4 3 3 4 4 4 5 6 6 7 7
4 3 4 5 4 3 2 2 2 2 2 2 3 2 2 2 3 4 4 2 2 3 4 3 4 4 4 4 5 5 4 6 6 6 9 11 11 9 3 3 3 3 3 4 4 3 3 4 5 4 5 6 7 7
Wind_Direction
335 336 336 335 335 336 336 338 337 335 336 340 343 344 346 349 353 343 335 359 337 306 293 284 296 269 201 245 259 93 204 200 216 235 250 178 251 177 206 57 212 232 257 200 240 260 238 62 245 273 2 323 329 320
330 331 333 330 332 334 336 335 333 332 333 336 338 338 337 340 347 336 294 2 319 253 331 316 289 286 302 4 317 187 359 64 21 245 229 166 186 183 199 180 172 213 338 7 295 50 81 357 312 317 314 304 306 307
329 328 329 329 330 335 334 331 330 330 331 334 332 330 331 332 335 333 309 329 262 266 227 235 191 152 227 247 266 282 143 46 134 343 44 65 187 266 192 162 155 137 139 258 284 115 333 317 292 301 335 319 309 303
328 326 326 324 324 325 326 328 327 326 328 327 326 323 324 324 321 307 298 348 283 294 286 107 121 137 136 178 211 303 15 144 103 249 233 226 181 263 151 91 270 44 184 26 270 266 328 94 6 332 318 311 304 302
326 323 324 324 324 324 325 327 326 325 325 324 320 319 321 317 308 274 253 252 305 320 333 24 150 89 238 199 204 212 209 217 199 185 201 130 100 186 99 206 168 187 51 303 355 358 324 310 320 316 310 310 308 306
323 322 324 323 325 326 327 327 327 324 322 319 318 321 320 307 266 219 199 182 237 321 281 220 79 120 114 155 161 169 140 131 274 281 93 105 65 283 205 179 99 111 100 359 321 322 314 304 299 314 323 319 312 312
320 325 325 326 326 327 328 326 323 321 319 319 320 322 329 265 209 316 25 21 279 294 270 265 163 114 146 156 158 169 205 315 304 82 219 133 157 260 279 259 130 125 6 325 315 319 311 332 326 322 315 324 329 320
324 326 327 328 328 327 329 327 324 322 320 319 320 322 17 174 269 217 76 54 215 276 273 284 134 171 192 189 166 242 198 204 168 356 179 213 157 237 237 117 121 54 327 311 338 324 309 314 326 341 330 336 328 321
324 326 327 329 330 330 331 330 328 326 323 319 322 194 199 227 253 46 356 162 254 306 338 305 285 121 226 129 95 156 253 219 78 234 175 240 145 226 120 138 93 17 349 323 320 307 335 338 346 335 344 336 340 337
323 324 327 330 330 331 334 335 335 330 325 319 258 236 196 57 330 243 165 208 176 166 249 272 271 174 300 203 118 203 241 250 225 88 175 234 168 122 130 102 36 356 343 318 302 324 340 341 340 347 349 353 351 336
318 320 325 327 328 331 334 338 340 334 329 353 339 338 346 321 233 225 250 257 90 119 30 337 337 340 32 348 51 5 36 341 252 120 253 188 182 153 138 89 32 348 324 317 296 305 317 335 341 347 353 356 357 358
314 316 321 323 325 328 331 335 342 336 349 324 300 291 267 244 240 263 84 92 61 181 127 324 334 331 345 324 323 129 284 223 261 127 238 220 114 136 138 85 24 346 332 320 324 316 318 334 352 351 349 351 354 3
311 313 318 319 322 324 329 332 332 314 288 204 237 259 330 196 40 23 359 48 241 354 17 26 1 335 272 294 301 244 243 252 135 224 231 69 135 140 134 49 355 332 335 325 325 324 309 341 349 357 354 351 345 351
311 313 316 316 317 324 326 327 328 316 272 289 314 321 273 167 53 17 61 323 344 301 219 175 168 290 260 253 251 238 110 246 241 243 160 128 123 143 63 354 308 333 330 325 313 299 333 322 317 348 4 357 352 354
313 313 314 307 327 326 322 320 316 269 281 287 282 258 194 16 119 31 204 192 170 268 243 202 236 230 210 241 221 232 208 233 249 25 104 107 104 321 328 324 324 321 322 314 315 304 306 312 281 340 360 1 358 355
320 309 251 332 332 328 325 310 248 263 242 254 239 252 242 243 140 97 52 24 8 342 247 258 291 274 220 292 238 227 268 329 57 94 57 78 24 357 331 312 310 310 306 305 308 295 301 330 319 319 328 5 359 7
313 262 353 337 334 324 315 283 258 248 285 250 221 250 290 282 305 341 331 9 334 271 23 283 257 18 286 235 252 13 346 334 352 333 3 16 318 315 318 307 303 305 306 310 314 297 307 322 334 316 306 2 4 16
262 327 339 335 335 313 252 269 280 275 257 246 274 28 285 290 288 282 350 330 306 33 306 289 319 244 250 254 11 42 326 328 317 315 316 3 315 306 298 294 302 299 299 308 314 327 297 292 310 279 320 337 1 23
303 310 315 328 325 305 310 247 295 288 291 318 290 267 290 292 282 272 271 259 284 306 286 262 256 249 266 339 339 314 329 323 318 311 305 265 307 301 309 303 312 322 315 322 336 296 275 291 271 358 43 352 38 31
293 294 306 325 279 271 270 212 267 277 284 16 279 268 299 294 310 283 261 236 252 249 235 235 286 304 329 347 331 313 308 308 292 283 293 305 318 313 324 352 1 345 320 319 299 283 342 36 109 86 71 54 36 29
268 18 328 262 242 267 286 296 252 311 314 283 316 312 299 273 252 245 222 212 218 221 232 220 310 19 12 354 331 320 299 290 281 275 294 306 271 326 319 315 5 353 335 328 313 358 337 21 92 121 92 67 58 31
3 328 281 235 281 234 262 216 301 326 268 298 291 289 262 249 313 353 339 235 357 31 17 21 18 359 2 20 11 356 339 320 295 292 273 267 284 310 340 9 351 17 21 312 324 300 288 304 65 93 100 104 107 63
295 231 247 262 268 209 269 253 264 237 272 313 303 246 225 269 349 308 254 53 73 6 46 62 50 26 316 27 333 342 346 340 346 352 340 314 1 82 26 338 303 348 301 289 291 327 337 281 146 154 125 61 46 37
202 274 281 273 255 273 304 240 246 269 297 290 305 297 286 313 316 246 268 74 38 334 307 42 41 4 308 293 337 318 332 339 327 344 337 75 90 71 307 319 296 299 336 1 65 263 245 101 225 123 63 70 56 42
276 274 193 282 235 258 249 253 247 252 271 295 264 260 303 303 277 273 286 88 48 27 17 127 122 93 172 304 321 319 282 311 300 316 109 106 158 281 259 240 147 187 225 164 161 151 148 141 97 95 93 47 25 25
271 171 187 219 201 245 289 297 246 288 286 272 265 337 284 298 264 249 109 79 62 35 39 47 360 326 357 4 348 328 316 295 207 156 143 197 229 319 3 76 80 61 28 27 31 64 97 97 78 91 110 116 105 341
272 210 220 216 282 274 261 229 253 259 262 263 292 304 279 249 246 114 115 92 69 45 30 28 332 309 348 355 342 351 350 11 43 104 175 211 244 277 321 14 46 33 7 6 25 35 67 81 85 66 51 49 28 10
263 260 240 183 237 240 274 299 252 231 237 224 232 227 257 282 18 97 140 132 38 353 346 65 52 2 32 151 262 279 293 309 301 281 241 242 267 35 9 356 58 34 37 22 7 57 61 65 67 56 45 28 21 18
237 213 252 253 237 236 236 232 258 272 291 270 271 302 294 311 353 325 150 240 291 299 305 327 49 318 307 158 183 225 224 266 341 9 71 93 95 102 135 72 65 62 80 84 45 48 49 45 34 30 30 25 26 21
238 200 241 241 236 240 216 224 269 286 290 329 327 235 263 271 272 278 273 258 261 262 263 16 293 300 305 5 132 148 51 179 207 285 2 41 26 37 76 76 68 65 63 81 99 117 165 174 152 77 40 41 23 14
205 201 242 246 261 260 255 258 263 311 263 239 252 251 267 290 293 284 280 275 248 241 229 198 244 246 23 304 32 65 68 53 110 199 270 344 6 80 78 78 71 55 51 55 52 45 39 53 52 45 40 20 26 1
201 221 242 258 273 268 257 251 266 259 209 232 245 223 247 232 276 244 354 272 209 209 207 249 254 65 161 210 49 76 218 62 86 52 74 102 95 96 99 79 56 54 44 41 24 39 33 357 16 2 356 13 359 357
200 226 240 269 258 248 177 235 234 257 219 222 231 223 212 282 17 34 98 19 1 137 140 107 88 90 84 70 70 87 62 73 73 50 58 47 28 4 339 39 33 10 343 335 344 340 318 332 330 344 345 349 348 349